Keswick Reservoir Weather Center

Moon Phase Calendar



Keswick Reservoir Water Level
Online Cameras

 


      

Current Conditions in Shasta
11/25/2020 5:09:33 PM

51°F
Feels Like 42
Clear
Humidity
31%
Pressure
30.18"
Wind
6.9 mph (NW)
Dew Point
22°F
UV Index
2/10 (Low)
Visibility
6 mi

Hourly Forecast

Date & Time Wed, Nov 25
5:00 PM
Wed, Nov 25
6:00 PM
Wed, Nov 25
7:00 PM
Wed, Nov 25
8:00 PM
Wed, Nov 25
9:00 PM
Wed, Nov 25
10:00 PM
Wed, Nov 25
11:00 PM
Thu, Nov 26
12:00 AM
Thu, Nov 26
1:00 AM
Thu, Nov 26
2:00 AM
Thu, Nov 26
3:00 AM
Thu, Nov 26
4:00 AM
Thu, Nov 26
5:00 AM
Thu, Nov 26
6:00 AM
Thu, Nov 26
7:00 AM
Thu, Nov 26
8:00 AM
Thu, Nov 26
9:00 AM
Thu, Nov 26
10:00 AM
Thu, Nov 26
11:00 AM
Thu, Nov 26
12:00 PM
Thu, Nov 26
1:00 PM
Thu, Nov 26
2:00 PM
Thu, Nov 26
3:00 PM
Thu, Nov 26
4:00 PM
Thu, Nov 26
5:00 PM
Thu, Nov 26
6:00 PM
Thu, Nov 26
7:00 PM
Thu, Nov 26
8:00 PM
Thu, Nov 26
9:00 PM
Thu, Nov 26
10:00 PM
Thu, Nov 26
11:00 PM
Fri, Nov 27
12:00 AM
Fri, Nov 27
1:00 AM
Fri, Nov 27
2:00 AM
Fri, Nov 27
3:00 AM
Fri, Nov 27
4:00 AM
Fri, Nov 27
5:00 AM
Fri, Nov 27
6:00 AM
Fri, Nov 27
7:00 AM
Fri, Nov 27
8:00 AM
Fri, Nov 27
9:00 AM
Fri, Nov 27
10:00 AM
Fri, Nov 27
11:00 AM
Fri, Nov 27
12:00 PM
Fri, Nov 27
1:00 PM
Fri, Nov 27
2:00 PM
Fri, Nov 27
3:00 PM
Fri, Nov 27
4:00 PM
Condition
Clear

Clear

Clear

Clear

Clear

Clear

Clear

Clear

Clear

Clear

Clear

Clear

Clear

Clear

Clear

Clear

Clear

Clear

Clear

Clear

Clear

Clear

Clear

Clear

Clear

Clear

Clear

Clear

Clear

Clear

Clouds

Clouds

Clouds

Clouds

Clouds

Clear

Clear

Clear

Clear

Clear

Clear

Clear

Clear

Clear

Clear

Clear

Clear

Clear
Temperature 51°F48°F45°F43°F42°F41°F41°F40°F40°F40°F39°F39°F39°F39°F39°F41°F47°F52°F56°F59°F60°F60°F60°F56°F51°F49°F47°F45°F45°F44°F44°F44°F44°F43°F43°F43°F43°F43°F43°F44°F51°F56°F61°F63°F65°F64°F62°F56°F
Feels Like 43°F41°F38°F36°F35°F34°F34°F33°F33°F32°F32°F32°F32°F32°F32°F33°F39°F45°F49°F51°F52°F53°F53°F50°F44°F41°F39°F38°F37°F37°F36°F36°F36°F36°F36°F36°F36°F35°F35°F37°F45°F51°F55°F58°F59°F58°F56°F51°F
Cloudiness 1%1%0%0%0%0%0%0%0%0%0%0%0%0%0%0%0%0%0%0%0%0%0%0%0%0%0%0%0%1%37%27%18%14%11%10%0%0%0%4%6%5%0%0%0%0%0%0%
Visibility 6 mi6 mi6 mi6 mi6 mi6 mi6 mi6 mi6 mi6 mi6 mi6 mi6 mi6 mi6 mi6 mi6 mi6 mi6 mi6 mi6 mi6 mi6 mi6 mi6 mi6 mi6 mi6 mi6 mi6 mi6 mi6 mi6 mi6 mi6 mi6 mi6 mi6 mi6 mi6 mi6 mi6 mi6 mi6 mi6 mi6 mi6 mi6 mi
Precipitation 0%2%0%0%0%0%0%0%0%0%0%0%0%0%0%0%0%0%0%0%0%0%0%0%0%0%0%0%0%0%0%0%0%0%0%0%0%0%0%0%0%0%0%0%0%0%0%0%
Humidity 31%47%58%64%67%69%70%71%71%71%71%72%71%71%71%66%53%43%37%33%32%31%32%37%45%49%53%55%57%57%56%56%56%56%56%55%55%55%55%51%41%34%29%27%26%27%30%38%
Dew Point 22°F29°F31°F32°F32°F31°F30°F30°F29°F29°F28°F28°F28°F27°F27°F27°F27°F27°F26°F25°F25°F25°F25°F27°F26°F26°F26°F26°F25°F24°F23°F22°F21°F20°F19°F19°F18°F17°F16°F16°F18°F19°F21°F22°F23°F24°F26°F29°F
Pressure 30.18"30.21"30.27"30.3"30.33"30.33"30.33"30.36"30.36"30.36"30.36"30.39"30.39"30.39"30.39"30.39"30.39"30.39"30.36"30.33"30.27"30.27"30.24"30.27"30.3"30.33"30.33"30.33"30.33"30.33"30.33"30.33"30.3"30.3"30.3"30.3"30.3"30.3"30.3"30.3"30.27"30.24"30.24"30.21"30.18"30.15"30.15"30.15"
Wind Speed 4.8 mph5.8 mph6.1 mph6.1 mph6.1 mph5.8 mph5.6 mph5.6 mph5.8 mph6 mph6.1 mph6.1 mph6.3 mph6.6 mph6.9 mph6.9 mph6.6 mph6.5 mph6.7 mph6.9 mph6.7 mph6.6 mph5.7 mph3.8 mph5 mph6 mph6.2 mph6.5 mph6.5 mph6.7 mph6.6 mph6.4 mph6.4 mph6.5 mph6.4 mph6.4 mph6.1 mph6 mph5.8 mph5.2 mph3.9 mph3.1 mph2.8 mph2.8 mph3.1 mph3.6 mph3.9 mph2.9 mph
Wind
Direction
293°
WNW
304°
NW
311°
NW
316°
NW
318°
NW
320°
NW
324°
NW
328°
NNW
328°
NNW
329°
NNW
331°
NNW
331°
NNW
331°
NNW
332°
NNW
332°
NNW
336°
NNW
348°
NNW
359°
N

N
15°
NNE
20°
NNE
18°
NNE
22°
NNE
14°
NNE
343°
NNW
334°
NNW
332°
NNW
331°
NNW
333°
NNW
334°
NNW
336°
NNW
336°
NNW
335°
NNW
336°
NNW
335°
NNW
337°
NNW
337°
NNW
334°
NNW
335°
NNW
337°
NNW
355°
N
31°
NNE
64°
ENE
92°
E
114°
ESE
131°
SE
147°
SSE
151°
SSE

Daily Forecast

Date High Low Precip. Humidity
Today
Nov 25

Clear
58 °F
41 °F
31%
50%
Thursday
Nov 26

Clear
60 °F
39 °F
0%
43%
Friday
Nov 27

Clear
65 °F
43 °F
0%
34%
Saturday
Nov 28

Clouds
65 °F
40 °F
0%
37%
Sunday
Nov 29

Clouds
63 °F
43 °F
0%
37%
Monday
Nov 30

Clouds
60 °F
41 °F
5%
44%
Tuesday
Dec 1

Clear
64 °F
41 °F
0%
37%
Wednesday
Dec 2

Clear
65 °F
40 °F
0%
35%
Thursday
Dec 3

Clear
64 °F
40 °F
0%
26%
Friday
Dec 4

Clear
67 °F
43 °F
0%
23%
Saturday
Dec 5

Clear
66 °F
42 °F
0%
24%
Sunday
Dec 6

Clear
68 °F
43 °F
0%
22%
Monday
Dec 7

Clear
69 °F
44 °F
0%
22%
Tuesday
Dec 8

Clouds
64 °F
43 °F
0%
26%
Wednesday
Dec 9

Rain
51 °F
45 °F
84%
45%
Thursday
Dec 10

Rain
60 °F
42 °F
100%
39%


Temperature 8-14 Day Outlook



Precipitation 8-14 Day Outlook




Quick Links
Keswick Reservoir News
Keswick Reservoir Photos
Keswick Reservoir Videos




About Us
Contact Us
Site Map
Search Site
Advertise With Us
   
Keswick.USLakes.info
THE KESWICK RESERVOIR WEBSITE

Copyright 2020, Lakes Online
Privacy    |    Legal